�������l�o���
Date,Time,MP-1(��Sv/h),MP-2(��Sv/h),MP-3(��Sv/h),MP-4(��Sv/h),MP-5(��Sv/h),MP-6(��Sv/h),MP-7(��Sv/h),MP-8(��Sv/h),����,����(m/s),���J
2020/03/14,00:00,0.695,0.996,0.664,1.213,0.862,0.398,0.696,0.662,�k,6.2,��
2020/03/14,00:10,0.693,0.997,0.664,1.213,0.864,0.397,0.695,0.661,�k,6.5,��
2020/03/14,00:20,0.693,0.997,0.663,1.211,0.863,0.399,0.695,0.662,�k,6.2,��
2020/03/14,00:30,0.693,0.998,0.663,1.213,0.864,0.397,0.695,0.660,�k,7.4,��
2020/03/14,00:40,0.692,0.996,0.664,1.211,0.863,0.398,0.698,0.661,�k,9.1,��
2020/03/14,00:50,0.692,0.997,0.666,1.210,0.864,0.399,0.695,0.662,�k,9.1,��
2020/03/14,01:00,0.692,0.995,0.664,1.211,0.864,0.400,0.696,0.661,�k,8.4,��
2020/03/14,01:10,0.692,0.997,0.665,1.211,0.865,0.398,0.695,0.662,�k,7.1,��
2020/03/14,01:20,0.693,0.998,0.665,1.210,0.865,0.399,0.695,0.662,�k,7.6,��
2020/03/14,01:30,0.693,0.996,0.665,1.212,0.862,0.399,0.697,0.661,�k,7.7,��
2020/03/14,01:40,0.692,0.997,0.666,1.213,0.863,0.398,0.696,0.662,�k,8.2,��
2020/03/14,01:50,0.693,0.997,0.666,1.211,0.865,0.397,0.695,0.661,�k,7.4,��
2020/03/14,02:00,0.693,0.994,0.664,1.214,0.862,0.397,0.697,0.661,�k,7.9,��
2020/03/14,02:10,0.693,0.997,0.664,1.212,0.863,0.398,0.696,0.661,�k,7.4,��
2020/03/14,02:20,0.692,0.997,0.664,1.212,0.865,0.398,0.695,0.662,�k,7.1,��
2020/03/14,02:30,0.691,0.997,0.664,1.213,0.863,0.398,0.696,0.662,�k,6.0,��
2020/03/14,02:40,0.691,0.998,0.664,1.211,0.864,0.398,0.697,0.662,�k,6.5,��
2020/03/14,02:50,0.692,0.998,0.665,1.211,0.865,0.399,0.695,0.662,�k,6.2,��
2020/03/14,03:00,0.694,0.997,0.665,1.212,0.864,0.399,0.696,0.661,�k,6.6,��
2020/03/14,03:10,0.692,0.997,0.665,1.210,0.864,0.399,0.696,0.660,�k�k��,6.1,��
2020/03/14,03:20,0.693,0.996,0.664,1.214,0.863,0.398,0.697,0.662,�k,5.9,��
2020/03/14,03:30,0.691,0.997,0.664,1.215,0.865,0.397,0.697,0.662,�k,5.9,��
2020/03/14,03:40,0.692,0.997,0.666,1.213,0.864,0.399,0.696,0.662,�k,5.0,��
2020/03/14,03:50,0.693,0.997,0.663,1.214,0.866,0.397,0.699,0.660,�k,5.1,��
2020/03/14,04:00,0.694,0.996,0.664,1.214,0.865,0.397,0.697,0.661,�k,5.7,��
2020/03/14,04:10,0.693,0.996,0.665,1.211,0.863,0.399,0.696,0.662,�k,5.6,��
2020/03/14,04:20,0.693,0.997,0.664,1.212,0.862,0.399,0.696,0.661,�k�k��,6.0,��
2020/03/14,04:30,0.691,0.995,0.665,1.213,0.865,0.399,0.696,0.663,�k�k��,7.8,��
2020/03/14,04:40,0.692,0.996,0.663,1.214,0.865,0.398,0.696,0.661,�k�k��,7.6,��
2020/03/14,04:50,0.690,0.999,0.665,1.214,0.865,0.398,0.696,0.662,�k�k��,7.4,��
2020/03/14,05:00,0.692,0.996,0.662,1.211,0.864,0.397,0.697,0.661,�k�k��,7.1,��
2020/03/14,05:10,0.692,0.996,0.664,1.213,0.863,0.398,0.696,0.661,�k�k��,7.8,��
2020/03/14,05:20,0.693,0.996,0.664,1.212,0.864,0.396,0.696,0.661,�k�k��,8.6,��
2020/03/14,05:30,0.691,0.996,0.663,1.212,0.864,0.396,0.697,0.659,�k,7.8,��
2020/03/14,05:40,0.692,0.996,0.663,1.211,0.862,0.398,0.696,0.661,�k,8.6,��
2020/03/14,05:50,0.692,0.999,0.664,1.210,0.862,0.398,0.697,0.660,�k,8.0,��
2020/03/14,06:00,0.692,0.995,0.663,1.210,0.863,0.398,0.696,0.661,�k,7.5,��
2020/03/14,06:10,0.693,0.995,0.663,1.213,0.865,0.397,0.695,0.661,�k�k��,7.8,��
2020/03/14,06:20,0.693,0.998,0.664,1.211,0.864,0.398,0.697,0.662,�k,8.7,��
2020/03/14,06:30,0.690,0.996,0.665,1.211,0.863,0.397,0.696,0.662,�k,7.8,��
2020/03/14,06:40,0.693,0.995,0.665,1.213,0.864,0.398,0.698,0.662,�k,6.2,��
2020/03/14,06:50,0.692,0.997,0.664,1.213,0.864,0.397,0.697,0.662,�k,5.8,��
2020/03/14,07:00,0.692,0.997,0.664,1.213,0.862,0.399,0.694,0.662,�k,5.3,��
2020/03/14,07:10,0.690,0.995,0.665,1.211,0.864,0.397,0.697,0.661,�k,5.8,��
2020/03/14,07:20,0.692,0.995,0.663,1.214,0.866,0.398,0.698,0.662,�k,7.0,��
2020/03/14,07:30,0.692,0.995,0.664,1.215,0.864,0.396,0.697,0.660,�k,5.3,��
2020/03/14,07:40,0.692,0.996,0.662,1.213,0.863,0.397,0.696,0.661,�k,5.6,��
2020/03/14,07:50,0.692,0.997,0.664,1.213,0.865,0.398,0.696,0.663,�k�k��,4.7,��
2020/03/14,08:00,0.693,0.995,0.665,1.213,0.865,0.397,0.696,0.661,�k�k��,4.3,��
2020/03/14,08:10,0.692,0.996,0.664,1.212,0.865,0.398,0.694,0.661,�k�k��,5.0,��
2020/03/14,08:20,0.693,0.998,0.662,1.217,0.864,0.397,0.695,0.663,�k�k��,5.5,��
2020/03/14,08:30,0.690,0.997,0.663,1.213,0.865,0.397,0.694,0.663,�k��,4.9,��
2020/03/14,08:40,0.694,1.001,0.664,1.215,0.866,0.399,0.694,0.662,�k��,5.5,��
2020/03/14,08:50,0.693,0.997,0.663,1.212,0.866,0.399,0.694,0.663,�k�k��,4.2,��
2020/03/14,09:00,0.691,0.998,0.664,1.213,0.866,0.398,0.695,0.661,�k�k��,4.3,��
2020/03/14,09:10,0.692,0.995,0.664,1.213,0.864,0.397,0.694,0.662,�k�k��,3.2,�L
2020/03/14,09:20,0.692,0.997,0.663,1.214,0.864,0.398,0.695,0.662,�k�k��,5.1,�L
2020/03/14,09:30,0.695,0.994,0.663,1.212,0.863,0.398,0.695,0.663,�k�k��,5.4,�L
2020/03/14,09:40,0.695,0.996,0.664,1.215,0.865,0.398,0.694,0.662,�k��,4.3,�L
2020/03/14,09:50,0.693,0.993,0.664,1.214,0.863,0.399,0.695,0.662,�k�k��,4.5,�L
2020/03/14,10:00,0.691,0.990,0.663,1.211,0.863,0.399,0.695,0.661,�k�k��,3.4,�L
2020/03/14,10:10,0.691,0.988,0.662,1.212,0.861,0.398,0.694,0.661,�k�k��,4.2,�L
2020/03/14,10:20,0.689,0.987,0.661,1.212,0.862,0.399,0.693,0.661,�k,3.6,�L
2020/03/14,10:30,0.690,0.986,0.661,1.209,0.859,0.399,0.694,0.659,�k�k��,3.8,�L
2020/03/14,10:40,0.688,0.984,0.659,1.207,0.858,0.397,0.691,0.661,�k�k��,3.1,�L
2020/03/14,10:50,0.688,0.983,0.660,1.206,0.856,0.396,0.694,0.661,�k,3.8,�L
2020/03/14,11:00,0.688,0.983,0.657,1.205,0.856,0.399,0.693,0.660,�k�k��,3.9,�L
2020/03/14,11:10,0.686,0.980,0.659,1.206,0.854,0.399,0.693,0.659,�k,3.5,�L
2020/03/14,11:20,0.685,0.978,0.657,1.202,0.851,0.396,0.694,0.658,�k�k��,4.3,�L
2020/03/14,11:30,0.684,0.974,0.657,1.204,0.852,0.395,0.692,0.658,�k�k��,3.7,�L
2020/03/14,11:40,0.684,0.974,0.657,1.200,0.851,0.396,0.693,0.658,�k�k��,4.0,�L
2020/03/14,11:50,0.684,0.972,0.656,1.200,0.849,0.397,0.691,0.656,�k�k��,4.6,�L
2020/03/14,12:00,0.684,0.969,0.656,1.197,0.848,0.396,0.691,0.656,�k�k��,4.0,�L
2020/03/14,12:10,0.684,0.966,0.655,1.193,0.846,0.396,0.689,0.656,�k�k��,4.8,�L
2020/03/14,12:20,0.680,0.966,0.654,1.193,0.846,0.395,0.689,0.655,�k�k��,5.0,�L
2020/03/14,12:30,0.680,0.962,0.652,1.190,0.843,0.396,0.687,0.655,�k�k��,4.1,�L
2020/03/14,12:40,0.678,0.962,0.652,1.186,0.842,0.393,0.687,0.656,�k,4.9,�L
2020/03/14,12:50,0.676,0.961,0.650,1.185,0.841,0.395,0.688,0.654,�k,4.5,�L
2020/03/14,13:00,0.675,0.957,0.650,1.180,0.836,0.393,0.688,0.654,�k,3.4,�L
2020/03/14,13:10,0.675,0.957,0.650,1.178,0.838,0.393,0.686,0.652,�k,4.8,�L
2020/03/14,13:20,0.676,0.957,0.648,1.177,0.835,0.393,0.685,0.652,�k,4.1,�L
2020/03/14,13:30,0.674,0.955,0.649,1.173,0.834,0.391,0.686,0.653,�k��,4.3,�L
2020/03/14,13:40,0.673,0.954,0.647,1.170,0.833,0.393,0.684,0.652,�k�k��,4.8,�L
2020/03/14,13:50,0.674,0.952,0.648,1.171,0.834,0.393,0.685,0.652,�k�k��,3.1,�L
2020/03/14,14:00,0.674,0.951,0.649,1.174,0.834,0.394,0.685,0.651,�k�k��,5.3,�L
2020/03/14,14:10,0.672,0.948,0.645,1.169,0.832,0.393,0.683,0.652,�k�k��,3.4,�L
2020/03/14,14:20,0.670,0.952,0.648,1.168,0.833,0.394,0.685,0.652,�k��,6.0,�L
2020/03/14,14:30,0.669,0.947,0.647,1.165,0.830,0.393,0.683,0.650,�k��,3.6,�L
2020/03/14,14:40,0.671,0.951,0.647,1.164,0.833,0.394,0.682,0.651,�k�k��,4.2,�L
2020/03/14,14:50,0.671,0.948,0.646,1.164,0.831,0.394,0.683,0.650,�k�k��,4.2,�L
2020/03/14,15:00,0.670,0.947,0.646,1.163,0.830,0.393,0.684,0.651,�k�k��,5.2,�L
2020/03/14,15:10,0.669,0.947,0.648,1.160,0.830,0.393,0.682,0.649,�k�k��,5.0,�L
2020/03/14,15:20,0.668,0.949,0.646,1.161,0.828,0.393,0.682,0.650,�k��,5.6,�L
2020/03/14,15:30,0.669,0.948,0.646,1.159,0.829,0.392,0.681,0.650,�k��,6.1,�L
2020/03/14,15:40,0.668,0.946,0.647,1.158,0.829,0.392,0.682,0.650,�k�k��,4.4,�L
2020/03/14,15:50,0.669,0.945,0.645,1.158,0.829,0.392,0.681,0.651,�k�k��,5.1,�L
2020/03/14,16:00,0.669,0.945,0.645,1.157,0.826,0.392,0.680,0.651,�k��,7.7,�L
2020/03/14,16:10,0.667,0.946,0.642,1.158,0.827,0.392,0.682,0.649,�k�k��,5.2,�L
2020/03/14,16:20,0.665,0.946,0.642,1.154,0.827,0.392,0.681,0.648,�k�k��,4.8,�L
2020/03/14,16:30,0.665,0.946,0.643,1.156,0.827,0.391,0.682,0.650,�k�k��,6.4,�L
2020/03/14,16:40,0.667,0.947,0.643,1.154,0.825,0.392,0.682,0.650,�k�k��,6.3,�L
2020/03/14,16:50,0.665,0.947,0.642,1.156,0.828,0.391,0.682,0.651,�k��,7.2,�L
2020/03/14,17:00,0.667,0.946,0.643,1.155,0.823,0.391,0.681,0.649,�k�k��,6.5,�L
2020/03/14,17:10,0.667,0.948,0.643,1.153,0.827,0.393,0.679,0.649,�k�k��,6.9,�L
2020/03/14,17:20,0.668,0.948,0.641,1.153,0.823,0.391,0.680,0.648,�k��,7.8,�L
2020/03/14,17:30,0.665,0.944,0.642,1.153,0.822,0.391,0.680,0.649,�k�k��,7.4,�L
2020/03/14,17:40,0.664,0.944,0.642,1.148,0.821,0.391,0.679,0.648,�k��,6.9,�L
2020/03/14,17:50,0.664,0.944,0.643,1.150,0.822,0.391,0.679,0.648,�k��,7.8,�L
2020/03/14,18:00,0.665,0.943,0.642,1.151,0.820,0.392,0.678,0.647,�k�k��,7.6,�L
2020/03/14,18:10,0.664,0.942,0.641,1.148,0.820,0.392,0.678,0.647,�k�k��,7.5,�L
2020/03/14,18:20,0.664,0.943,0.643,1.149,0.821,0.393,0.677,0.649,�k�k��,6.8,�L
2020/03/14,18:30,0.664,0.941,0.641,1.147,0.820,0.393,0.676,0.649,�k�k��,7.7,�L
2020/03/14,18:40,0.664,0.942,0.641,1.148,0.820,0.392,0.676,0.648,�k�k��,7.5,�L
2020/03/14,18:50,0.666,0.943,0.641,1.150,0.820,0.392,0.677,0.648,�k�k��,7.2,�L
2020/03/14,19:00,0.664,0.941,0.640,1.151,0.821,0.392,0.678,0.648,�k�k��,8.1,�L
2020/03/14,19:10,0.666,0.942,0.642,1.152,0.823,0.390,0.676,0.648,�k�k��,7.5,�L
2020/03/14,19:20,0.667,0.945,0.639,1.153,0.821,0.392,0.678,0.648,�k�k��,7.2,�L
2020/03/14,19:30,0.667,0.946,0.640,1.152,0.824,0.390,0.680,0.650,�k�k��,6.9,�L
2020/03/14,19:40,0.666,0.946,0.644,1.154,0.821,0.391,0.679,0.648,�k�k��,6.5,�L
2020/03/14,19:50,0.665,0.947,0.639,1.153,0.823,0.392,0.679,0.649,�k�k��,5.8,�L
2020/03/14,20:00,0.668,0.946,0.642,1.154,0.822,0.392,0.680,0.649,�k�k��,6.8,�L
2020/03/14,20:10,0.665,0.950,0.643,1.154,0.822,0.391,0.680,0.649,�k�k��,7.0,�L
2020/03/14,20:20,0.667,0.948,0.641,1.153,0.822,0.389,0.679,0.650,�k�k��,7.7,�L
2020/03/14,20:30,0.667,0.949,0.641,1.157,0.822,0.390,0.679,0.648,�k�k��,7.3,�L
2020/03/14,20:40,0.667,0.949,0.640,1.156,0.822,0.391,0.680,0.650,�k�k��,7.5,�L
2020/03/14,20:50,0.666,0.949,0.642,1.157,0.823,0.390,0.679,0.650,�k�k��,7.7,�L
2020/03/14,21:00,0.668,0.951,0.642,1.156,0.825,0.389,0.679,0.648,�k�k��,7.5,�L
2020/03/14,21:10,0.668,0.949,0.643,1.158,0.825,0.389,0.681,0.648,�k�k��,5.6,�L
2020/03/14,21:20,0.669,0.950,0.643,1.158,0.823,0.389,0.681,0.649,�k�k��,6.7,�L
2020/03/14,21:30,0.667,0.949,0.642,1.158,0.823,0.390,0.680,0.651,�k�k��,6.8,�L
2020/03/14,21:40,0.669,0.950,0.641,1.161,0.825,0.389,0.680,0.649,�k�k��,6.5,�L
2020/03/14,21:50,0.670,0.950,0.643,1.159,0.827,0.392,0.681,0.648,�k�k��,8.0,�L
2020/03/14,22:00,0.668,0.952,0.642,1.162,0.824,0.391,0.681,0.651,�k�k��,7.7,�L
2020/03/14,22:10,0.670,0.952,0.642,1.162,0.826,0.392,0.681,0.650,�k�k��,6.8,�L
2020/03/14,22:20,0.668,0.952,0.643,1.159,0.823,0.390,0.682,0.650,�k�k��,6.6,�L
2020/03/14,22:30,0.669,0.951,0.642,1.162,0.824,0.390,0.682,0.650,�k�k��,6.7,�L
2020/03/14,22:40,0.671,0.952,0.643,1.162,0.825,0.391,0.683,0.650,�k�k��,6.2,��
2020/03/14,22:50,0.667,0.950,0.643,1.159,0.826,0.388,0.682,0.649,�k�k��,5.6,��
2020/03/14,23:00,0.669,0.953,0.643,1.161,0.827,0.389,0.680,0.649,�k��,5.3,��
2020/03/14,23:10,0.668,0.951,0.643,1.164,0.826,0.390,0.682,0.652,�k�k��,6.5,��
2020/03/14,23:20,0.668,0.953,0.644,1.163,0.828,0.390,0.682,0.650,�k�k��,6.9,��
2020/03/14,23:30,0.669,0.951,0.643,1.162,0.827,0.391,0.682,0.651,�k�k��,7.0,��
2020/03/14,23:40,0.670,0.952,0.642,1.164,0.826,0.391,0.681,0.649,�k�k��,7.2,��
2020/03/14,23:50,0.668,0.952,0.644,1.165,0.828,0.391,0.681,0.649,�k�k��,7.2,��
